Time,TemperatureF,DewpointF,PressureIn,WindDirection,WindDirectionDegrees,WindSpeedMPH,WindSpeedGustMPH,Humidity,HourlyPrecipIn,Conditions,Clouds,dailyrainin,SolarRadiationWatts/m^2,SoftwareType,DateUTC
2013-03-04 00:01:00,17.0,6.0,-100.00,ESE,120,5.0,10.0,60,0.00,,,0.00,0.000000,,2013-03-04 06:01:00,
2013-03-04 00:11:00,17.0,6.0,-100.00,SE,137,7.0,9.0,62,0.00,,,0.00,0.000000,,2013-03-04 06:11:00,
2013-03-04 00:32:00,17.0,6.0,-100.00,SE,137,7.0,9.0,62,0.00,,,0.00,0.000000,,2013-03-04 06:32:00,
2013-03-04 00:42:00,17.0,6.0,-100.00,SE,137,7.0,9.0,62,0.00,,,0.00,0.000000,,2013-03-04 06:42:00,
2013-03-04 00:52:00,17.0,6.0,-100.00,SE,137,7.0,9.0,62,0.00,,,0.00,0.000000,,2013-03-04 06:52:00,
2013-03-04 01:01:00,17.0,6.0,-100.00,SE,137,7.0,9.0,62,0.00,,,0.00,0.000000,,2013-03-04 07:01:00,
2013-03-04 01:11:00,17.0,6.0,-100.00,SE,132,6.0,9.0,61,0.00,,,0.00,0.000000,,2013-03-04 07:11:00,
2013-03-04 01:32:00,17.0,6.0,-100.00,SE,132,6.0,9.0,61,0.00,,,0.00,0.000000,,2013-03-04 07:32:00,
2013-03-04 01:42:00,17.0,6.0,-100.00,SE,132,6.0,9.0,61,0.00,,,0.00,0.000000,,2013-03-04 07:42:00,
2013-03-04 01:52:00,17.0,6.0,-100.00,SE,132,6.0,9.0,61,0.00,,,0.00,0.000000,,2013-03-04 07:52:00,
2013-03-04 02:02:00,17.0,6.0,-100.00,SE,132,6.0,9.0,61,0.00,,,0.00,0.000000,,2013-03-04 08:02:00,
2013-03-04 02:11:00,17.0,6.0,-100.00,SE,125,6.0,9.0,62,0.00,,,0.00,0.000000,,2013-03-04 08:11:00,
2013-03-04 02:42:00,17.0,6.0,-100.00,SE,125,6.0,9.0,62,0.00,,,0.00,0.000000,,2013-03-04 08:42:00,
2013-03-04 02:52:00,17.0,6.0,-100.00,SE,125,6.0,9.0,62,0.00,,,0.00,0.000000,,2013-03-04 08:52:00,
2013-03-04 03:01:00,17.0,6.0,-100.00,SE,125,6.0,9.0,62,0.00,,,0.00,0.000000,,2013-03-04 09:01:00,
2013-03-04 03:11:00,16.0,6.0,-100.00,ESE,104,6.0,10.0,63,0.00,,,0.00,0.000000,,2013-03-04 09:11:00,
2013-03-04 03:32:00,16.0,6.0,-100.00,ESE,104,6.0,10.0,63,0.00,,,0.00,0.000000,,2013-03-04 09:32:00,
2013-03-04 03:42:00,16.0,6.0,-100.00,ESE,104,6.0,10.0,63,0.00,,,0.00,0.000000,,2013-03-04 09:42:00,
2013-03-04 03:52:00,16.0,6.0,-100.00,ESE,104,6.0,10.0,63,0.00,,,0.00,0.000000,,2013-03-04 09:52:00,
2013-03-04 04:01:00,16.0,6.0,-100.00,ESE,104,6.0,10.0,63,0.00,,,0.00,0.000000,,2013-03-04 10:01:00,
2013-03-04 04:11:00,16.0,6.0,-100.00,ESE,110,6.0,9.0,63,0.00,,,0.00,0.000000,,2013-03-04 10:11:00,
2013-03-04 04:32:00,16.0,6.0,-100.00,ESE,110,6.0,9.0,63,0.00,,,0.00,0.000000,,2013-03-04 10:32:00,
2013-03-04 04:42:00,16.0,6.0,-100.00,ESE,110,6.0,9.0,63,0.00,,,0.00,0.000000,,2013-03-04 10:42:00,
2013-03-04 04:52:00,16.0,6.0,-100.00,ESE,110,6.0,9.0,63,0.00,,,0.00,0.000000,,2013-03-04 10:52:00,
2013-03-04 05:02:00,16.0,6.0,-100.00,ESE,110,6.0,9.0,63,0.00,,,0.00,0.000000,,2013-03-04 11:02:00,
2013-03-04 05:11:00,17.0,7.0,-100.00,ESE,106,5.0,9.0,63,0.00,,,0.00,0.000000,,2013-03-04 11:11:00,
2013-03-04 05:32:00,17.0,7.0,-100.00,ESE,106,5.0,9.0,63,0.00,,,0.00,0.000000,,2013-03-04 11:32:00,
2013-03-04 05:42:00,17.0,7.0,-100.00,ESE,106,5.0,9.0,63,0.00,,,0.00,0.000000,,2013-03-04 11:42:00,
2013-03-04 05:52:00,17.0,7.0,-100.00,ESE,106,5.0,9.0,63,0.00,,,0.00,0.000000,,2013-03-04 11:52:00,
2013-03-04 06:01:00,17.0,7.0,-100.00,ESE,106,5.0,9.0,63,0.00,,,0.00,0.000000,,2013-03-04 12:01:00,
2013-03-04 06:11:00,17.0,8.0,-100.00,ESE,109,8.0,11.0,66,0.00,,,0.00,0.000000,,2013-03-04 12:11:00,
2013-03-04 06:32:00,17.0,8.0,-100.00,ESE,109,8.0,11.0,66,0.00,,,0.00,0.000000,,2013-03-04 12:32:00,
2013-03-04 06:42:00,17.0,8.0,-100.00,ESE,109,8.0,11.0,66,0.00,,,0.00,0.000000,,2013-03-04 12:42:00,
2013-03-04 06:53:00,17.0,8.0,-100.00,ESE,109,8.0,11.0,66,0.00,,,0.00,0.000000,,2013-03-04 12:53:00,
2013-03-04 07:02:00,17.0,8.0,-100.00,ESE,109,8.0,11.0,66,0.00,,,0.00,0.000000,,2013-03-04 13:02:00,
2013-03-04 07:11:00,19.0,12.0,-100.00,ESE,104,8.0,14.0,73,0.00,,,0.00,8.000000,,2013-03-04 13:11:00,
2013-03-04 07:42:00,19.0,12.0,-100.00,ESE,104,8.0,14.0,73,0.00,,,0.00,8.000000,,2013-03-04 13:42:00,
2013-03-04 07:52:00,19.0,12.0,-100.00,ESE,104,8.0,14.0,73,0.00,,,0.00,8.000000,,2013-03-04 13:52:00,
2013-03-04 08:01:00,19.0,12.0,-100.00,ESE,104,8.0,14.0,73,0.00,,,0.00,8.000000,,2013-03-04 14:01:00,
2013-03-04 08:11:00,20.0,12.0,-100.00,ESE,114,9.0,15.0,72,0.00,,,0.00,54.000000,,2013-03-04 14:11:00,
2013-03-04 08:32:00,20.0,12.0,-100.00,ESE,114,9.0,15.0,72,0.00,,,0.00,54.000000,,2013-03-04 14:32:00,
2013-03-04 08:42:00,20.0,12.0,-100.00,ESE,114,9.0,15.0,72,0.00,,,0.00,54.000000,,2013-03-04 14:42:00,
2013-03-04 08:52:00,20.0,12.0,-100.00,ESE,114,9.0,15.0,72,0.00,,,0.00,54.000000,,2013-03-04 14:52:00,
2013-03-04 09:01:00,20.0,12.0,-100.00,ESE,114,9.0,15.0,72,0.00,,,0.00,54.000000,,2013-03-04 15:01:00,
2013-03-04 09:11:00,22.0,14.0,-100.00,ESE,104,10.0,16.0,71,0.00,,,0.00,95.000000,,2013-03-04 15:11:00,
2013-03-04 09:42:00,22.0,14.0,-100.00,ESE,104,10.0,16.0,71,0.00,,,0.00,95.000000,,2013-03-04 15:42:00,
2013-03-04 09:52:00,22.0,14.0,-100.00,ESE,104,10.0,16.0,71,0.00,,,0.00,95.000000,,2013-03-04 15:52:00,
2013-03-04 10:02:00,22.0,14.0,-100.00,ESE,104,10.0,16.0,71,0.00,,,0.00,95.000000,,2013-03-04 16:02:00,
2013-03-04 10:11:00,25.0,16.0,-100.00,ESE,113,10.0,15.0,67,0.00,,,0.00,157.000000,,2013-03-04 16:11:00,
2013-03-04 10:42:00,25.0,16.0,-100.00,ESE,113,10.0,15.0,67,0.00,,,0.00,157.000000,,2013-03-04 16:42:00,
2013-03-04 10:52:00,25.0,16.0,-100.00,ESE,113,10.0,15.0,67,0.00,,,0.00,157.000000,,2013-03-04 16:52:00,
2013-03-04 11:02:00,25.0,16.0,-100.00,ESE,113,10.0,15.0,67,0.00,,,0.00,157.000000,,2013-03-04 17:02:00,
2013-03-04 11:11:00,26.0,14.0,-100.00,ESE,110,11.0,18.0,61,0.00,,,0.00,228.000000,,2013-03-04 17:11:00,
2013-03-04 11:42:00,26.0,14.0,-100.00,ESE,110,11.0,18.0,61,0.00,,,0.00,228.000000,,2013-03-04 17:42:00,
2013-03-04 11:52:00,26.0,14.0,-100.00,ESE,110,11.0,18.0,61,0.00,,,0.00,228.000000,,2013-03-04 17:52:00,
2013-03-04 12:01:00,26.0,14.0,-100.00,ESE,110,11.0,18.0,61,0.00,,,0.00,228.000000,,2013-03-04 18:01:00,
2013-03-04 12:11:00,28.0,17.0,-100.00,ESE,105,8.0,17.0,62,0.00,,,0.00,184.000000,,2013-03-04 18:11:00,
2013-03-04 12:32:00,28.0,17.0,-100.00,ESE,105,8.0,17.0,62,0.00,,,0.00,184.000000,,2013-03-04 18:32:00,
2013-03-04 12:42:00,28.0,17.0,-100.00,ESE,105,8.0,17.0,62,0.00,,,0.00,184.000000,,2013-03-04 18:42:00,
2013-03-04 12:52:00,28.0,17.0,-100.00,ESE,105,8.0,17.0,62,0.00,,,0.00,184.000000,,2013-03-04 18:52:00,
2013-03-04 13:02:00,28.0,17.0,-100.00,ESE,105,8.0,17.0,62,0.00,,,0.00,184.000000,,2013-03-04 19:02:00,
2013-03-04 13:11:00,28.0,16.0,-100.00,ESE,112,12.0,19.0,61,0.00,,,0.00,217.000000,,2013-03-04 19:11:00,
2013-03-04 13:32:00,28.0,16.0,-100.00,ESE,112,12.0,19.0,61,0.00,,,0.00,217.000000,,2013-03-04 19:32:00,
2013-03-04 13:42:00,28.0,16.0,-100.00,ESE,112,12.0,19.0,61,0.00,,,0.00,217.000000,,2013-03-04 19:42:00,
2013-03-04 13:52:00,28.0,16.0,-100.00,ESE,112,12.0,19.0,61,0.00,,,0.00,217.000000,,2013-03-04 19:52:00,
2013-03-04 14:02:00,28.0,16.0,-100.00,ESE,112,12.0,19.0,61,0.00,,,0.00,217.000000,,2013-03-04 20:02:00,
2013-03-04 14:11:00,27.0,16.0,-100.00,ESE,105,11.0,24.0,62,0.00,,,0.00,170.000000,,2013-03-04 20:11:00,
2013-03-04 14:32:00,27.0,16.0,-100.00,ESE,105,11.0,24.0,62,0.00,,,0.00,170.000000,,2013-03-04 20:32:00,
2013-03-04 14:42:00,27.0,16.0,-100.00,ESE,105,11.0,24.0,62,0.00,,,0.00,170.000000,,2013-03-04 20:42:00,
2013-03-04 14:52:00,27.0,16.0,-100.00,ESE,105,11.0,24.0,62,0.00,,,0.00,170.000000,,2013-03-04 20:52:00,
2013-03-04 15:02:00,27.0,16.0,-100.00,ESE,105,11.0,24.0,62,0.00,,,0.00,170.000000,,2013-03-04 21:02:00,
2013-03-04 15:11:00,29.0,20.0,-100.00,ESE,106,12.0,20.0,70,0.00,,,0.00,158.000000,,2013-03-04 21:11:00,
2013-03-04 15:32:00,29.0,20.0,-100.00,ESE,106,12.0,20.0,70,0.00,,,0.00,158.000000,,2013-03-04 21:32:00,
2013-03-04 15:43:00,29.0,20.0,-100.00,ESE,106,12.0,20.0,70,0.00,,,0.00,158.000000,,2013-03-04 21:43:00,
2013-03-04 15:53:00,29.0,20.0,-100.00,ESE,106,12.0,20.0,70,0.00,,,0.00,158.000000,,2013-03-04 21:53:00,
2013-03-04 16:02:00,29.0,20.0,-100.00,ESE,106,12.0,20.0,70,0.00,,,0.00,158.000000,,2013-03-04 22:02:00,
2013-03-04 16:11:00,30.0,19.0,-100.00,East,94,9.0,20.0,63,0.00,,,0.00,314.000000,,2013-03-04 22:11:00,
2013-03-04 16:32:00,30.0,19.0,-100.00,East,94,9.0,20.0,63,0.00,,,0.00,314.000000,,2013-03-04 22:32:00,
2013-03-04 16:43:00,30.0,19.0,-100.00,East,94,9.0,20.0,63,0.00,,,0.00,314.000000,,2013-03-04 22:43:00,
2013-03-04 16:52:00,30.0,19.0,-100.00,East,94,9.0,20.0,63,0.00,,,0.00,314.000000,,2013-03-04 22:52:00,
2013-03-04 17:02:00,30.0,19.0,-100.00,East,94,9.0,20.0,63,0.00,,,0.00,314.000000,,2013-03-04 23:02:00,
2013-03-04 17:11:00,29.0,17.0,-100.00,East,95,8.0,20.0,61,0.00,,,0.00,138.000000,,2013-03-04 23:11:00,
2013-03-04 17:32:00,29.0,17.0,-100.00,East,95,8.0,20.0,61,0.00,,,0.00,138.000000,,2013-03-04 23:32:00,
2013-03-04 17:42:00,29.0,17.0,-100.00,East,95,8.0,20.0,61,0.00,,,0.00,138.000000,,2013-03-04 23:42:00,
2013-03-04 17:52:00,29.0,17.0,-100.00,East,95,8.0,20.0,61,0.00,,,0.00,138.000000,,2013-03-04 23:52:00,
2013-03-04 18:02:00,29.0,17.0,-100.00,East,95,8.0,20.0,61,0.00,,,0.00,138.000000,,2013-03-05 00:02:00,
2013-03-04 18:11:00,28.0,18.0,-100.00,East,99,9.0,19.0,66,0.00,,,0.00,13.000000,,2013-03-05 00:11:00,
2013-03-04 18:42:00,28.0,18.0,-100.00,East,99,9.0,19.0,66,0.00,,,0.00,13.000000,,2013-03-05 00:42:00,
2013-03-04 18:52:00,28.0,18.0,-100.00,East,99,9.0,19.0,66,0.00,,,0.00,13.000000,,2013-03-05 00:52:00,
2013-03-04 19:01:00,28.0,18.0,-100.00,East,99,9.0,19.0,66,0.00,,,0.00,13.000000,,2013-03-05 01:01:00,
2013-03-04 20:11:00,27.0,20.0,-100.00,ESE,102,8.0,14.0,74,-99.99,,,0.00,0.000000,,2013-03-05 02:11:00,
2013-03-04 20:42:00,27.0,20.0,-100.00,ESE,102,8.0,14.0,74,-99.99,,,0.00,0.000000,,2013-03-05 02:42:00,
2013-03-04 20:52:00,27.0,20.0,-100.00,ESE,102,8.0,14.0,74,-99.99,,,0.00,0.000000,,2013-03-05 02:52:00,
2013-03-04 21:02:00,27.0,20.0,-100.00,ESE,102,8.0,14.0,74,-99.99,,,0.00,0.000000,,2013-03-05 03:02:00,
2013-03-04 21:11:00,27.0,21.0,-100.00,East,95,7.0,16.0,78,0.00,,,0.00,0.000000,,2013-03-05 03:11:00,
2013-03-04 21:32:00,27.0,21.0,-100.00,East,95,7.0,16.0,78,0.00,,,0.00,0.000000,,2013-03-05 03:32:00,
2013-03-04 21:42:00,27.0,21.0,-100.00,East,95,7.0,16.0,78,0.00,,,0.00,0.000000,,2013-03-05 03:42:00,
2013-03-04 21:52:00,27.0,21.0,-100.00,East,95,7.0,16.0,78,0.00,,,0.00,0.000000,,2013-03-05 03:52:00,
2013-03-04 22:02:00,27.0,21.0,-100.00,East,95,7.0,16.0,78,0.00,,,0.00,0.000000,,2013-03-05 04:02:00,
2013-03-04 22:11:00,26.0,20.0,-100.00,East,88,6.0,15.0,77,0.00,,,0.00,0.000000,,2013-03-05 04:11:00,
2013-03-04 22:32:00,26.0,20.0,-100.00,East,88,6.0,15.0,77,0.00,,,0.00,0.000000,,2013-03-05 04:32:00,
2013-03-04 22:42:00,26.0,20.0,-100.00,East,88,6.0,15.0,77,0.00,,,0.00,0.000000,,2013-03-05 04:42:00,
2013-03-04 22:52:00,26.0,20.0,-100.00,East,88,6.0,15.0,77,0.00,,,0.00,0.000000,,2013-03-05 04:52:00,
2013-03-04 23:02:00,26.0,20.0,-100.00,East,88,6.0,15.0,77,0.00,,,0.00,0.000000,,2013-03-05 05:02:00,
2013-03-04 23:11:00,26.0,20.0,-100.00,East,83,6.0,12.0,78,0.00,,,0.00,0.000000,,2013-03-05 05:11:00,
2013-03-04 23:32:00,26.0,20.0,-100.00,East,83,6.0,12.0,78,0.00,,,0.00,0.000000,,2013-03-05 05:32:00,
2013-03-04 23:42:00,26.0,20.0,-100.00,East,83,6.0,12.0,78,0.00,,,0.00,0.000000,,2013-03-05 05:42:00,
2013-03-04 23:52:00,26.0,20.0,-100.00,East,83,6.0,12.0,78,0.00,,,0.00,0.000000,,2013-03-05 05:52:00,